TimePST,TemperatureF,Dew PointF,Humidity,Sea Level PressureIn,VisibilityMPH,Wind Direction,Wind SpeedMPH,Gust SpeedMPH,PrecipitationIn,Events,Conditions,WindDirDegrees,DateUTC
12:53 AM,43.0,41.0,93,30.12,6.0,Calm,Calm,-,N/A,,Overcast,0,2013-01-05 08:53:00
1:53 AM,42.1,41.0,96,30.13,6.0,East,5.8,-,N/A,,Overcast,90,2013-01-05 09:53:00
2:53 AM,43.0,41.0,93,30.13,6.0,East,3.5,-,N/A,,Overcast,80,2013-01-05 10:53:00
3:53 AM,42.1,41.0,96,30.12,6.0,Calm,Calm,-,N/A,,Overcast,0,2013-01-05 11:53:00
4:53 AM,42.1,41.0,96,30.10,6.0,East,3.5,-,N/A,,Scattered Clouds,80,2013-01-05 12:53:00
5:53 AM,42.1,39.9,92,30.09,6.0,East,3.5,-,N/A,,Overcast,80,2013-01-05 13:53:00
6:53 AM,43.0,39.9,89,30.05,6.0,ENE,9.2,-,N/A,,Scattered Clouds,70,2013-01-05 14:53:00
7:53 AM,42.1,39.9,92,30.05,6.0,East,5.8,-,N/A,,Clear,80,2013-01-05 15:53:00
8:53 AM,41.0,39.9,96,30.08,4.0,NNE,4.6,-,N/A,,Clear,30,2013-01-05 16:53:00
9:53 AM,42.1,41.0,96,30.10,4.0,Calm,Calm,-,N/A,,Mostly Cloudy,0,2013-01-05 17:53:00
10:53 AM,45.0,41.0,86,30.09,5.0,Calm,Calm,-,N/A,,Clear,0,2013-01-05 18:53:00
11:53 AM,48.0,39.0,71,30.07,5.0,Variable,4.6,-,N/A,,Haze,0,2013-01-05 19:53:00
12:53 PM,48.0,39.9,74,30.04,5.0,Variable,6.9,19.6,N/A,,Haze,0,2013-01-05 20:53:00
1:53 PM,46.9,41.0,80,30.06,2.0,SSW,10.4,16.1,0.01,Rain,Light Rain,200,2013-01-05 21:53:00
1:57 PM,46.4,41.0,81,30.05,1.2,South,8.1,-,N/A,Rain,Rain,190,2013-01-05 21:57:00
2:19 PM,44.6,42.8,93,30.06,1.5,South,9.2,-,0.06,Rain,Light Rain,190,2013-01-05 22:19:00
2:30 PM,44.6,42.8,93,30.06,1.0,South,10.4,16.1,0.08,Rain,Light Rain,190,2013-01-05 22:30:00
2:41 PM,44.6,42.8,93,30.06,1.5,South,6.9,17.3,0.10,Rain,Light Rain,190,2013-01-05 22:41:00
2:53 PM,45.0,43.0,93,30.07,1.5,SSW,9.2,-,0.11,Rain,Light Rain,200,2013-01-05 22:53:00
3:25 PM,44.6,42.8,93,30.08,0.8,SW,11.5,19.6,N/A,Rain,Rain,220,2013-01-05 23:25:00
3:38 PM,42.8,42.8,100,30.08,1.0,West,9.2,-,0.06,Rain,Light Rain,270,2013-01-05 23:38:00
3:45 PM,42.8,42.8,100,30.08,1.2,West,5.8,-,0.07,Rain,Light Rain,270,2013-01-05 23:45:00
3:53 PM,43.0,42.1,97,30.09,1.5,West,4.6,-,0.07,Rain,Light Rain,270,2013-01-05 23:53:00
4:08 PM,42.8,42.8,100,30.09,2.0,West,3.5,-,0.01,Rain,Light Rain,280,2013-01-06 00:08:00
4:45 PM,42.8,42.8,100,30.10,1.8,Calm,Calm,-,0.03,Rain,Light Rain,0,2013-01-06 00:45:00
4:53 PM,43.0,42.1,97,30.10,1.5,Calm,Calm,-,0.04,Rain,Light Rain,0,2013-01-06 00:53:00
5:09 PM,42.8,42.8,100,30.09,3.0,ESE,4.6,-,0.03,Rain,Light Rain,110,2013-01-06 01:09:00
5:53 PM,41.0,39.9,96,30.10,5.0,Calm,Calm,-,0.03,,Partly Cloudy,0,2013-01-06 01:53:00
6:19 PM,39.2,39.2,100,30.09,1.8,Calm,Calm,-,N/A,,Clear,0,2013-01-06 02:19:00
6:29 PM,39.2,37.4,93,30.09,3.0,Calm,Calm,-,N/A,,Clear,0,2013-01-06 02:29:00
6:53 PM,37.9,37.9,100,30.11,3.0,Calm,Calm,-,N/A,,Partly Cloudy,0,2013-01-06 02:53:00
6:55 PM,37.4,37.4,100,30.10,1.8,Calm,Calm,-,N/A,,Partly Cloudy,0,2013-01-06 02:55:00
7:02 PM,37.4,37.4,100,30.10,0.8,Calm,Calm,-,N/A,,Mostly Cloudy,0,2013-01-06 03:02:00
7:42 PM,37.4,37.4,100,30.12,1.5,Calm,Calm,-,N/A,,Overcast,0,2013-01-06 03:42:00
7:50 PM,37.4,37.4,100,30.12,0.8,Calm,Calm,-,N/A,,Overcast,0,2013-01-06 03:50:00
7:53 PM,37.9,37.0,97,30.12,0.5,Calm,Calm,-,N/A,Fog,Fog,0,2013-01-06 03:53:00
8:15 PM,39.2,39.2,100,30.12,1.5,Calm,Calm,-,N/A,,Overcast,0,2013-01-06 04:15:00
8:18 PM,39.2,39.2,100,30.11,3.0,Calm,Calm,-,N/A,,Overcast,0,2013-01-06 04:18:00
8:22 PM,39.2,39.2,100,30.11,1.5,Calm,Calm,-,N/A,,Overcast,0,2013-01-06 04:22:00
8:24 PM,39.2,39.2,100,30.11,0.8,Calm,Calm,-,N/A,,Overcast,0,2013-01-06 04:24:00
8:53 PM,39.0,37.9,96,30.12,0.5,Calm,Calm,-,N/A,Fog,Fog,0,2013-01-06 04:53:00
9:22 PM,39.2,39.2,100,30.11,1.5,Calm,Calm,-,0.00,Rain,Light Rain,0,2013-01-06 05:22:00
9:25 PM,39.2,39.2,100,30.11,3.0,Calm,Calm,-,0.00,Rain,Light Rain,0,2013-01-06 05:25:00
9:53 PM,37.9,37.9,100,30.12,5.0,Calm,Calm,-,0.00,,Mostly Cloudy,0,2013-01-06 05:53:00
10:53 PM,39.0,39.0,100,30.12,4.0,Calm,Calm,-,0.00,Rain,Light Rain,0,2013-01-06 06:53:00
11:53 PM,39.9,39.0,97,30.12,3.0,Calm,Calm,-,0.01,Rain,Light Rain,0,2013-01-06 07:53:00